Grey Islet, British Columbia

6:21 AM PDT on July 23, 2017 (GMT -0700)
Grey Islet

Weather History for CWEK - February, 2013

Change the Weather History Date:

Sunday, February 10, 2013

  Actual Average Record
Temperature  
Mean Temperature 44 °F -  
Max Temperature 45 °F - - ()
Min Temperature 42 °F - - ()
Degree Days  
Heating Degree Days 22    
Moisture  
Dew Point 42 °F    
Average Humidity 91    
Maximum Humidity 97    
Minimum Humidity 77    
Precipitation  
Precipitation 0.20 in - - ()
Sea Level Pressure  
Sea Level Pressure 30.19 in    
Wind  
Wind Speed 17 mph ()    
Max Wind Speed 34 mph    
Max Gust Speed 40 mph    
T = Trace of Precipitation, MM = Missing Value Source: Averaged Metar Reports

Daily Weather History Graph

Daily Weather History Graph

Search for Another Location

Airport or City:

Trip Planner

Search our weather history database for the weather conditions in past years. The results will help you decide how hot, cold, wet, or windy it might be!

Date:

Astronomy

Feb. 10, 2013 Rise Set
Actual Time 8:13 AM PST 5:41 PM PST
Civil Twilight 7:35 AM PST 6:19 PM PST
Nautical Twilight 6:53 AM PST 7:01 PM PST
Astronomical Twilight 6:12 AM PST 7:43 PM PST
Moon 7:54 AM PST (2/10) 6:57 PM PST (2/10)
Length of Visible Light 10h 43m
Length of Day
9h 27m
New Moon, 0% of the Moon is Illuminated
Feb 10
New Moon
Feb 17
First Quarter
Feb 25
Full
Mar 4
Last Quarter
Mar 11
New

Hourly Weather History & Observations

Time (PST) Temp. Windchill Dew Point Humidity Pressure Visibility Wind Dir Wind Speed Gust Speed Precip Events Conditions
12:00 AM 45.0 °F 40.6 °F 42.6 °F 91% 30.27 in - SSE 8.1 mph - N/A   Unknown
1:00 AM 44.4 °F 39.5 °F 42.1 °F 91% 30.27 in - SE 9.2 mph - N/A   Unknown
2:00 AM 45.0 °F 38.2 °F 42.4 °F 91% 30.27 in - South 15.0 mph - N/A   Unknown
3:00 AM 45.1 °F 37.3 °F 42.4 °F 90% 30.26 in - South 19.6 mph - N/A   Unknown
4:00 AM 44 °F - 43 °F 93% 30.25 in - South 21.9 mph - -  
4:00 AM 44.4 °F 35.9 °F 42.6 °F 93% 30.25 in - South 21.9 mph - N/A   Unknown
5:00 AM 43.3 °F 35.0 °F 42.3 °F 96% 30.25 in - South 19.6 mph - 0.01 in   Unknown
6:00 AM 44.1 °F 35.2 °F 42.3 °F 93% 30.21 in - SSE 23.0 mph - N/A   Unknown
7:00 AM 44.6 °F 35.9 °F 42.3 °F 91% 30.19 in - South 23.0 mph - N/A   Unknown
8:00 AM 45.0 °F 34.7 °F 40.6 °F 85% 30.15 in - South 33.4 mph - N/A   Unknown
9:00 AM 45.1 °F 35.0 °F 40.8 °F 85% 30.14 in - South 33.4 mph - N/A   Unknown
10:00 AM 45 °F - 40 °F 77% 30.15 in - South 34.5 mph - -  
10:00 AM 45.0 °F 34.6 °F 40.1 °F 83% 30.15 in - South 34.5 mph 40.3 mph N/A   Unknown
11:00 AM 44.1 °F 34.4 °F 41.2 °F 90% 30.17 in - South 27.6 mph - 0.02 in   Unknown
12:00 PM 43.9 °F 33.4 °F 41.7 °F 92% 30.16 in - South 32.2 mph - 0.02 in   Unknown
1:00 PM 43.7 °F 33.3 °F 42.4 °F 95% 30.16 in - South 31.1 mph - 0.03 in   Unknown
2:00 PM 43.7 °F 34.1 °F 42.6 °F 96% 30.16 in - South 26.5 mph - 0.03 in   Unknown
3:00 PM 43.2 °F 32.8 °F 42.3 °F 97% 30.15 in - South 29.9 mph - 0.02 in   Unknown
4:00 PM 43 °F - 42 °F 95% 30.17 in - South 25.3 mph - -  
4:00 PM 42.8 °F 33.1 °F 42.1 °F 97% 30.17 in - South 25.3 mph - 0.05 in   Unknown
5:00 PM 42.6 °F - 41.5 °F 96% 30.16 in - WNW 1.2 mph - 0.08 in   Unknown
6:00 PM 42.8 °F 35.8 °F 41.4 °F 95% 30.17 in - South 13.8 mph - N/A   Unknown
7:00 PM 43.3 °F 38.6 °F 41.5 °F 93% 30.17 in - SSW 8.1 mph - N/A   Unknown
8:00 PM 43.2 °F 39.7 °F 39.6 °F 87% 30.17 in - SW 5.8 mph - N/A   Unknown
9:00 PM 43.3 °F 39.2 °F 39.4 °F 86% 30.16 in - SSW 6.9 mph - N/A   Unknown
10:00 PM 43 °F - 40 °F 85% 30.16 in - South 8.1 mph - -  
10:00 PM 43.3 °F 38.6 °F 40.1 °F 88% 30.16 in - South 8.1 mph - N/A   Unknown
11:00 PM 43.5 °F 38.3 °F 41.2 °F 91% 30.16 in - South 9.2 mph - N/A   Unknown